Location: Briis
(48.6240°N, 2.1211°E)
Time: 07:31:33
(UTC+00:00)

Meteor 2-4 Rocket - Pass Details

Date: 25 September 2020
Orbit: 799 x 908 km, 81.2° (Epoch: 21 October)

Event Time Altitude Azimuth Distance (km) Brightness Sun altitude
Rises 05:07:32 0° 186° (S) 3,350 6.7 -6.7°
Reaches altitude 10° 05:09:56 10° 185° (S) 2,408 6.0 -6.3°
Maximum altitude 05:15:22 80° 100° (E) 826 3.8 -5.4°
Drops below altitude 10° 05:20:44 10° 14° (NNE) 2,388 6.3 -4.5°
Sets 05:23:07 0° 13° (NNE) 3,320 7.0 -4.1°
